Weather History for KEWR - January, 2012

Change the Weather History Date:

Saturday, January 21, 2012

  Actual Average Record
Temperature  
Mean Temperature 25 °F 31 °F  
Max Temperature 29 °F 39 °F 63 °F (2006)
Min Temperature 21 °F 24 °F -8 °F (1985)
Degree Days  
Heating Degree Days 40 34  
Month to date heating degree days 625 704  
Since 1 July heating degree days 1972 2454  
Cooling Degree Days 0 0  
Month to date cooling degree days 0 0  
Year to date cooling degree days 0 0  
Moisture  
Dew Point 19 °F    
Average Humidity 67    
Maximum Humidity 92    
Minimum Humidity 42    
Precipitation  
Precipitation 0.40 in 0.11 in 2.95 in (1979)
Month to date precipitation 2.26 2.46  
Year to date precipitation 2.26 2.46  
Snow  
Snow 3.30 in 0.30 in 10.00 in (2014)
Month to date snowfall 3.3 5.3  
Since 1 July snowfall 8.5 11.1  
Snow Depth 2.00 in    
Sea Level Pressure  
Sea Level Pressure 30.11 in    
Wind  
Wind Speed 13 mph (NNE)    
Max Wind Speed 21 mph    
Max Gust Speed 25 mph    
Visibility 5 miles    
Events Fog , Rain , Snow    
T = Trace of Precipitation, MM = Missing Value Source: NWS Daily Summary

Daily Weather History Graph

Daily Weather History Graph

Search for Another Location

Airport or City:

Trip Planner

Search our weather history database for the weather conditions in past years. The results will help you decide how hot, cold, wet, or windy it might be!

Date:

Astronomy

Jan. 21, 2012 Rise Set
Actual Time 7:15 AM EST 5:00 PM EST
Civil Twilight 6:45 AM EST 5:30 PM EST
Nautical Twilight 6:12 AM EST 6:03 PM EST
Astronomical Twilight 5:40 AM EST 6:36 PM EST
Moon 5:44 AM EST (1/21) 3:33 PM EST (1/21)
Length of Visible Light 10h 44m
Length of Day
9h 44m
Waning Crescent, 3% of the Moon is Illuminated
Jan 21
Waning Crescent
Jan 23
New
Jan 30
First Quarter
Feb 7
Full
Feb 14
Last Quarter

Hourly Weather History & Observations

Time (EST) Temp. Windchill Dew Point Humidity Pressure Visibility Wind Dir Wind Speed Gust Speed Precip Events Conditions
12:51 AM 28.0 °F 19.3 °F 9.0 °F 45% 30.27 in 10.0 mi North 9.2 mph - N/A   Overcast
1:51 AM 28.0 °F 20.0 °F 10.0 °F 47% 30.25 in 10.0 mi North 8.1 mph - N/A   Overcast
2:46 AM 26.6 °F 20.0 °F 17.6 °F 69% 30.26 in 4.0 mi ENE 5.8 mph - 0.00 in Snow Light Snow
2:49 AM 26.6 °F 17.5 °F 17.6 °F 69% 30.25 in 2.0 mi ENE 9.2 mph - 0.00 in Snow Light Snow
2:51 AM 27.0 °F 18.7 °F 18.0 °F 69% 30.25 in 1.5 mi ENE 8.1 mph - 0.00 in Snow Light Snow
3:16 AM 24.8 °F 16.1 °F 19.4 °F 80% 30.23 in 2.0 mi NE 8.1 mph - N/A Snow Light Snow
3:45 AM 26.6 °F 19.1 °F 21.2 °F 80% 30.19 in 1.2 mi NE 6.9 mph - 0.01 in Snow Light Snow
3:51 AM 25.0 °F 17.1 °F 21.0 °F 85% 30.19 in 1.0 mi ENE 6.9 mph - 0.01 in Snow Light Snow
4:00 AM 24.8 °F 16.9 °F 21.2 °F 86% 30.20 in 1.0 mi NE 6.9 mph - 0.01 in Snow Light Snow
4:17 AM 24.8 °F 16.1 °F 21.2 °F 86% 30.18 in 1.0 mi NE 8.1 mph - 0.01 in Snow Light Snow
4:51 AM 25.0 °F 14.8 °F 21.9 °F 88% 30.15 in 1.2 mi NE 10.4 mph - 0.03 in Snow Light Snow
5:08 AM 24.8 °F 16.1 °F 21.2 °F 86% 30.14 in 1.0 mi ENE 8.1 mph - 0.01 in Snow Light Snow
5:14 AM 24.8 °F 15.3 °F 21.2 °F 86% 30.14 in 1.0 mi ENE 9.2 mph - 0.01 in Snow Light Snow
5:25 AM 24.8 °F 14.6 °F 21.2 °F 86% 30.13 in 1.2 mi ENE 10.4 mph - 0.01 in Snow Light Snow
5:51 AM 25.0 °F 17.1 °F 21.9 °F 88% 30.12 in 1.5 mi NNE 6.9 mph - 0.02 in Snow Light Snow
6:51 AM 25.0 °F 13.6 °F 21.9 °F 88% 30.10 in 1.5 mi NE 12.7 mph - 0.02 in Snow Light Snow
7:51 AM 23.0 °F 11.1 °F 19.9 °F 88% 30.10 in 1.0 mi NNE 12.7 mph - 0.02 in Snow Light Snow
7:55 AM 23.0 °F 11.1 °F 19.4 °F 86% 30.10 in 0.5 mi NNE 12.7 mph - 0.00 in Fog , Snow Light Snow
8:03 AM 21.2 °F 7.8 °F 19.4 °F 93% 30.09 in 0.5 mi NNE 15.0 mph - 0.01 in Fog , Snow Light Snow
8:29 AM 21.2 °F 7.3 °F 19.4 °F 93% 30.09 in 0.2 mi NNE 16.1 mph - 0.02 in Fog , Snow Light Snow
8:51 AM 21.9 °F 8.2 °F 19.0 °F 89% 30.09 in 0.2 mi NNE 16.1 mph - 0.04 in Fog , Snow Light Snow
9:09 AM 21.2 °F 7.3 °F 19.4 °F 93% 30.08 in 0.8 mi North 16.1 mph - 0.00 in Snow Light Snow
9:30 AM 21.2 °F 7.3 °F 19.4 °F 93% 30.07 in 0.8 mi NNE 16.1 mph - 0.02 in Snow Light Snow
9:51 AM 21.9 °F 8.7 °F 19.0 °F 89% 30.06 in 0.8 mi North 15.0 mph - 0.03 in Snow Light Snow
10:05 AM 21.2 °F 7.8 °F 19.4 °F 93% 30.05 in 3.0 mi NNE 15.0 mph - 0.00 in Snow Light Snow
10:10 AM 23.0 °F 9.6 °F 19.4 °F 86% 30.05 in 3.0 mi NNE 16.1 mph - 0.00 in Snow Light Snow
10:34 AM 23.0 °F 9.6 °F 19.4 °F 86% 30.03 in 3.0 mi NNE 16.1 mph - 0.01 in Snow Light Ice Pellets
10:44 AM 23.0 °F 10.1 °F 19.4 °F 86% 30.02 in 3.0 mi NNE 15.0 mph - 0.01 in   Ice Pellets
10:51 AM 23.0 °F 9.6 °F 19.9 °F 88% 30.02 in 2.5 mi NNE 16.1 mph - 0.02 in Snow Ice Pellets
11:02 AM 23.0 °F 9.2 °F 19.4 °F 86% 30.02 in 2.5 mi North 17.3 mph - 0.01 in Snow Light Ice Pellets
11:42 AM 23.0 °F 9.6 °F 19.4 °F 86% 30.00 in 5.0 mi North 16.1 mph - 0.02 in Snow Light Snow
11:49 AM 23.0 °F 9.2 °F 19.4 °F 86% 30.00 in 4.0 mi North 17.3 mph - 0.02 in Snow Light Ice Pellets
11:51 AM 24.1 °F 11.5 °F 19.9 °F 84% 30.00 in 4.0 mi North 15.0 mph - 0.02 in Snow Light Ice Pellets
12:12 PM 24.8 °F 11.1 °F 19.4 °F 80% 30.00 in 5.0 mi NNE 18.4 mph - 0.00 in   Ice Pellets
12:19 PM 24.8 °F 11.1 °F 19.4 °F 80% 30.00 in 5.0 mi North 18.4 mph - 0.00 in   Light Ice Pellets
12:43 PM 24.8 °F 10.7 °F 19.4 °F 80% 30.00 in 7.0 mi North 19.6 mph - 0.01 in Rain Light Freezing Rain
12:47 PM 24.8 °F 10.7 °F 19.4 °F 80% 29.99 in 7.0 mi North 19.6 mph - 0.01 in Rain Light Freezing Rain
12:51 PM 24.1 °F 10.6 °F 19.9 °F 84% 29.99 in 7.0 mi North 17.3 mph - 0.01 in Rain Light Freezing Rain
1:00 PM 24.8 °F 11.1 °F 19.4 °F 80% 29.99 in 7.0 mi NNE 18.4 mph - 0.00 in   Light Freezing Drizzle
1:14 PM 24.8 °F 11.5 °F 19.4 °F 80% 30.00 in 8.0 mi North 17.3 mph - 0.00 in   Overcast
1:38 PM 24.8 °F 12.4 °F 19.4 °F 80% 29.99 in 10.0 mi North 15.0 mph 23.0 mph 0.00 in   Overcast
1:51 PM 25.0 °F 11.3 °F 19.9 °F 81% 29.99 in 10.0 mi NNE 18.4 mph - 0.00 in   Overcast
2:51 PM 26.1 °F 13.1 °F 19.9 °F 78% 30.01 in 10.0 mi North 17.3 mph - N/A   Overcast
3:39 PM 26.6 °F 14.3 °F 19.4 °F 74% 30.04 in 6.0 mi NNE 16.1 mph - 0.00 in Snow Light Freezing Drizzle
3:51 PM 26.6 °F 14.7 °F 19.4 °F 74% 30.05 in 7.0 mi NNE 15.0 mph - N/A Snow Light Freezing Drizzle
4:06 PM 26.6 °F 16.2 °F 21.2 °F 80% 30.06 in 6.0 mi North 11.5 mph - 0.00 in Snow Light Snow
4:51 PM 26.1 °F 14.0 °F 19.9 °F 78% 30.10 in 9.0 mi North 15.0 mph - 0.00 in Snow Light Snow
5:01 PM 26.6 °F 15.2 °F 19.4 °F 74% 30.10 in 4.0 mi North 13.8 mph - 0.00 in Snow Light Snow
5:40 PM 26.6 °F 14.3 °F 19.4 °F 74% 30.14 in 6.0 mi North 16.1 mph - 0.00 in Snow Light Snow
5:51 PM 26.1 °F 14.0 °F 21.0 °F 81% 30.15 in 7.0 mi North 15.0 mph - 0.00 in Snow Light Snow
6:51 PM 26.1 °F 15.0 °F 19.0 °F 75% 30.17 in 10.0 mi NNE 12.7 mph - 0.00 in   Overcast
7:51 PM 26.1 °F 13.1 °F 18.0 °F 71% 30.21 in 10.0 mi North 17.3 mph - N/A   Overcast
8:51 PM 26.1 °F 14.5 °F 17.1 °F 69% 30.24 in 10.0 mi North 13.8 mph - N/A   Overcast
9:51 PM 26.1 °F 16.8 °F 17.1 °F 69% 30.27 in 10.0 mi NNE 9.2 mph - N/A   Overcast
10:51 PM 24.1 °F 12.0 °F 15.1 °F 69% 30.30 in 10.0 mi North 13.8 mph - N/A   Scattered Clouds
11:51 PM 21.2 °F 7.8 °F 12.2 °F 68% 30.32 in 10.0 mi North 15.0 mph - N/A   Scattered Clouds